Regional Weather Roundup
Issued by NWS

Home | Current Version | Previous Version | Graphics & Text | Print | Product List | Glossary On
Versions: 1 2 3 4 5 6 7 8 9 10 11 12 13 14 15 16 17 18 19 20 21 22 23 24 25 26 27 28 29 30 31 32 33 34 35 36 37 38 39 40 41 42 43 44 45 46 47 48 49 50
000
ASUS43 KIND 232059
RWRIN

WEATHER ROUNDUP FOR INDIANA
NATIONAL WEATHER SERVICE INDIANAPOLIS IN
500 PM EDT WED APR 23 2014

NOTE: "FAIR" INDICATES FEW OR NO CLOUDS BELOW 12,000 FEET WITH NO
SIGNIFICANT WEATHER AND/OR OBSTRUCTIONS TO VISIBILITY.

* - STATION DOES NOT REPORT WEATHER SUCH AS PRECIPITATION OR FOG.

+ - STATION NOT QUALITY CONTROLLED BY THE NATIONAL WEATHER SERVICE.
    USE DATA WITH CAUTION...ESPECIALLY DEWPOINT AND RELATIVE
    HUMIDITY OBSERVATIONS.

INZ001>003-010>013-019-020-232200-
NORTHWEST INDIANA

CITY           SKY/WX    TMP DP  RH WIND       PRES   REMARKS
GARY /AIRPORT/ MOSUNNY   45  32  61 NE16      30.15F
VALPARAISO     SUNNY     50  30  46 NE9       30.11F

$$

LMZ046-743>745-232200-
SOUTHERN LAKE MICHIGAN

STATION/POSITION TIME  TEMP WIND        PRES
                       AIR  DIR/SP/G
                 (UTC) (F)  (DEG/KT/KT) (MB)
MICHIGAN CITY    2000   38  360/ 12/ 14   N/A

$$

INZ004-005-014>016-021>024-232200-
NORTH CENTRAL INDIANA

CITY           SKY/WX    TMP DP  RH WIND       PRES   REMARKS
ELKHART        SUNNY     57  25  28 CALM      30.09
GOSHEN         SUNNY     57  27  31 CALM      30.08F
SOUTH BEND     SUNNY     55  35  47 N9        30.11F

$$

INZ006>009-017-018-025>027-232200-
NORTHEAST INDIANA

CITY           SKY/WX    TMP DP  RH WIND       PRES   REMARKS
ANGOLA *+      SUNNY     55  25  30 NE6       30.08F
FORT WAYNE     MOSUNNY   58  29  33 VRB5      30.08F

$$

INZ028-029-035-036-043>045-051>053-232200-
WEST CENTRAL INDIANA

CITY           SKY/WX    TMP DP  RH WIND       PRES   REMARKS
GREENCASTLE +  SUNNY     59  32  36 NE8       30.07F
LAFAYETTE      SUNNY     58  30  34 E6        30.07F
TERRE HAUTE    SUNNY     62  26  25 CALM      30.06F

$$

INZ030>032-037>040-046>048-054>057-064-065-232200-
CENTRAL INDIANA

CITY           SKY/WX    TMP DP  RH WIND       PRES   REMARKS
COLUMBUS       SUNNY     59  30  33 N7        30.07
INDIANAPOLIS   MOSUNNY   57  30  35 VRB6      30.06F
-EAGLE CREEK   SUNNY     58  29  33 CALM      30.06F
KOKOMO *+      SUNNY     57  27  30 N8        30.08F
MT COMFORT *+  SUNNY     59  34  38 E5        30.08F
SHELBYVILLE    SUNNY     60  31  33 E3        30.07F

$$

INZ033-034-041-042-049-050-058-059-232200-
EAST CENTRAL INDIANA

CITY           SKY/WX    TMP DP  RH WIND       PRES   REMARKS
MUNCIE         SUNNY     57  32  38 NE7       30.07S

$$

INZ060-061-067>069-081>083-085>088-232200-
SOUTHWEST INDIANA

CITY           SKY/WX    TMP DP  RH WIND       PRES   REMARKS
EVANSVILLE     SUNNY     66  29  24 MISG      30.05F
HUNTINGBURG *+ SUNNY     63  36  36 SE9       30.05F

$$

INZ062-063-066-070>080-084-089>092-232200-
SOUTH CENTRAL AND SOUTHEAST INDIANA

CITY           SKY/WX    TMP DP  RH WIND       PRES   REMARKS
BLOOMINGTON    SUNNY     63  26  24 NE8       30.06F

$$




USA.gov is the U.S. government's official web portal to all federal, state and local government web resources and services.